******** Week 355 almanac for PRN-1 ******** ID: 1 Health: 0 Eccentricity: 0.001450061798 Time of Applicability(s): 589824 Orbital Inclination(rad): 0.9584347915 Rate of Right Ascen(r/s): -7.931758961e-09 SQRT(A) (m 1/2): 5153.584473 Right Ascen at Week(rad): -2.522802931 Argument of Perigee(rad): 0.009586256407 Mean Anom(rad): 1.152324795 Af0(s): 0.000266800708 Af1(s/s): -3.637979e-12 week: 355 ******** Week 355 almanac for PRN-2 ******** ID: 2 Health: 0 Eccentricity: 0.01697492599 Time of Applicability(s): 589824 Orbital Inclination(rad): 0.9638995981 Rate of Right Ascen(r/s): -7.714607058e-09 SQRT(A) (m 1/2): 5153.563965 Right Ascen at Week(rad): -2.685422122 Argument of Perigee(rad): -0.8361221447 Mean Anom(rad): 2.557242223 Af0(s): 2.261022949e-05 Af1(s/s): 7.275958e-12 week: 355 ******** Week 355 almanac for PRN-3 ******** ID: 3 Health: 0 Eccentricity: 0.006381988525 Time of Applicability(s): 589824 Orbital Inclination(rad): 0.9926617379 Rate of Right Ascen(r/s): -8.057478483e-09 SQRT(A) (m 1/2): 5153.594727 Right Ascen at Week(rad): -1.53646789 Argument of Perigee(rad): 1.205628006 Mean Anom(rad): -1.056166745 Af0(s): 0.0004604950073 Af1(s/s): -1.091394e-11 week: 355 ******** Week 355 almanac for PRN-4 ******** ID: 4 Health: 0 Eccentricity: 0.003717899322 Time of Applicability(s): 589824 Orbital Inclination(rad): 0.9705987798 Rate of Right Ascen(r/s): -7.737465153e-09 SQRT(A) (m 1/2): 5153.705078 Right Ascen at Week(rad): -0.4651849172 Argument of Perigee(rad): -2.900155838 Mean Anom(rad): 1.972916883 Af0(s): 3.316166992e-05 Af1(s/s): 3.637979e-12 week: 355 ******** Week 355 almanac for PRN-5 ******** ID: 5 Health: 0 Eccentricity: 0.005366802216 Time of Applicability(s): 589824 Orbital Inclination(rad): 0.9792334139 Rate of Right Ascen(r/s): -8.194627053e-09 SQRT(A) (m 1/2): 5153.637207 Right Ascen at Week(rad): -1.595851597 Argument of Perigee(rad): 1.420866933 Mean Anom(rad): 2.602630602 Af0(s): -0.0001801281616 Af1(s/s): 0 week: 355 ******** Week 355 almanac for PRN-6 ******** ID: 6 Health: 0 Eccentricity: 0.003876209259 Time of Applicability(s): 589824 Orbital Inclination(rad): 0.9873886789 Rate of Right Ascen(r/s): -7.611745631e-09 SQRT(A) (m 1/2): 5153.578613 Right Ascen at Week(rad): -2.573111958 Argument of Perigee(rad): -0.6066770431 Mean Anom(rad): 0.3062460069 Af0(s): -0.0004800905395 Af1(s/s): -3.637979e-12 week: 355 ******** Week 355 almanac for PRN-7 ******** ID: 7 Health: 0 Eccentricity: 0.02027082443 Time of Applicability(s): 589824 Orbital Inclination(rad): 0.9511363986 Rate of Right Ascen(r/s): -7.703178011e-09 SQRT(A) (m 1/2): 5153.583496 Right Ascen at Week(rad): 0.543261768 Argument of Perigee(rad): -2.00084874 Mean Anom(rad): -0.5916364664 Af0(s): -0.0001130511475 Af1(s/s): -3.637979e-12 week: 355 ******** Week 355 almanac for PRN-8 ******** ID: 8 Health: 0 Eccentricity: 0.01148605347 Time of Applicability(s): 589824 Orbital Inclination(rad): 0.9439997926 Rate of Right Ascen(r/s): -7.840326581e-09 SQRT(A) (m 1/2): 5153.620117 Right Ascen at Week(rad): 2.591571784 Argument of Perigee(rad): 0.5102800575 Mean Anom(rad): 2.2510464 Af0(s): 0.0003934179932 Af1(s/s): -3.637979e-12 week: 355 ******** Week 355 almanac for PRN-9 ******** ID: 9 Health: 0 Eccentricity: 0.003331184387 Time of Applicability(s): 589824 Orbital Inclination(rad): 0.9647025412 Rate of Right Ascen(r/s): -7.840326581e-09 SQRT(A) (m 1/2): 5153.52832 Right Ascen at Week(rad): -0.5292057702 Argument of Perigee(rad): 2.064206341 Mean Anom(rad): 2.85206202 Af0(s): 0.0006089688477 Af1(s/s): 0 week: 355 ******** Week 355 almanac for PRN-10 ******** ID: 10 Health: 0 Eccentricity: 0.0109667778 Time of Applicability(s): 589824 Orbital Inclination(rad): 0.9922003452 Rate of Right Ascen(r/s): -8.057478483e-09 SQRT(A) (m 1/2): 5153.601562 Right Ascen at Week(rad): -1.538978585 Argument of Perigee(rad): -2.26016265 Mean Anom(rad): -2.03546405 Af0(s): -0.0004635097046 Af1(s/s): -3.637979e-12 week: 355 ******** Week 355 almanac for PRN-11 ******** ID: 11 Health: 0 Eccentricity: 0.002236366272 Time of Applicability(s): 589824 Orbital Inclination(rad): 0.9642291643 Rate of Right Ascen(r/s): -7.863184676e-09 SQRT(A) (m 1/2): 5153.516113 Right Ascen at Week(rad): -2.553658565 Argument of Perigee(rad): -2.285820875 Mean Anom(rad): 1.319227598 Af0(s): -0.0003595026489 Af1(s/s): 1.455192e-11 week: 355 ******** Week 355 almanac for PRN-12 ******** ID: 12 Health: 0 Eccentricity: 0.009073734283 Time of Applicability(s): 589824 Orbital Inclination(rad): 0.958728405 Rate of Right Ascen(r/s): -8.000333246e-09 SQRT(A) (m 1/2): 5153.488281 Right Ascen at Week(rad): 1.661121056 Argument of Perigee(rad): 1.540035444 Mean Anom(rad): -1.202516976 Af0(s): -0.0004800905395 Af1(s/s): 0 week: 355 ******** Week 355 almanac for PRN-13 ******** ID: 13 Health: 0 Eccentricity: 0.009943962097 Time of Applicability(s): 589824 Orbital Inclination(rad): 0.9763212472 Rate of Right Ascen(r/s): -7.611745631e-09 SQRT(A) (m 1/2): 5153.634766 Right Ascen at Week(rad): -0.3545521705 Argument of Perigee(rad): 0.9994248109 Mean Anom(rad): 1.987396448 Af0(s): 0.0005441528564 Af1(s/s): 0 week: 355 ******** Week 355 almanac for PRN-14 ******** ID: 14 Health: 0 Eccentricity: 0.006575107574 Time of Applicability(s): 589824 Orbital Inclination(rad): 0.9420763245 Rate of Right Ascen(r/s): -8.194627053e-09 SQRT(A) (m 1/2): 5153.577637 Right Ascen at Week(rad): 1.606939252 Argument of Perigee(rad): -2.759882358 Mean Anom(rad): -1.405274707 Af0(s): 0.000578821875 Af1(s/s): 3.637979e-12 week: 355 ******** Week 355 almanac for PRN-15 ******** ID: 15 Health: 0 Eccentricity: 0.01660823822 Time of Applicability(s): 589824 Orbital Inclination(rad): 0.9424478355 Rate of Right Ascen(r/s): -8.148910863e-09 SQRT(A) (m 1/2): 5153.633789 Right Ascen at Week(rad): -0.6724966534 Argument of Perigee(rad): 1.495367241 Mean Anom(rad): 1.248576472 Af0(s): 0.0003014697266 Af1(s/s): 3.637979e-12 week: 355 ******** Week 355 almanac for PRN-16 ******** ID: 16 Health: 0 Eccentricity: 0.01505327225 Time of Applicability(s): 589824 Orbital Inclination(rad): 0.9578775251 Rate of Right Ascen(r/s): -8.034620388e-09 SQRT(A) (m 1/2): 5153.56543 Right Ascen at Week(rad): 1.678158879 Argument of Perigee(rad): 0.925015882 Mean Anom(rad): -3.023163421 Af0(s): 0.0001575179321 Af1(s/s): 7.275958e-12 week: 355 ******** Week 355 almanac for PRN-17 ******** ID: 17 Health: 0 Eccentricity: 0.01274299622 Time of Applicability(s): 589824 Orbital Inclination(rad): 0.9597950011 Rate of Right Ascen(r/s): -7.691748963e-09 SQRT(A) (m 1/2): 5153.525391 Right Ascen at Week(rad): 2.695768628 Argument of Perigee(rad): -1.129896693 Mean Anom(rad): 2.154106005 Af0(s): -3.919106445e-05 Af1(s/s): -1.091394e-11 week: 355 ******** Week 355 almanac for PRN-18 ******** ID: 18 Health: 0 Eccentricity: 0.005704879761 Time of Applicability(s): 589824 Orbital Inclination(rad): 0.9723424845 Rate of Right Ascen(r/s): -7.760323248e-09 SQRT(A) (m 1/2): 5153.602051 Right Ascen at Week(rad): -2.577720642 Argument of Perigee(rad): -2.85777138 Mean Anom(rad): 0.1696958757 Af0(s): -0.0003451828369 Af1(s/s): 1.091394e-11 week: 355 ******** Week 355 almanac for PRN-19 ******** ID: 19 Health: 0 Eccentricity: 0.01103067398 Time of Applicability(s): 589824 Orbital Inclination(rad): 0.9590100343 Rate of Right Ascen(r/s): -7.646032773e-09 SQRT(A) (m 1/2): 5153.664062 Right Ascen at Week(rad): 2.739664971 Argument of Perigee(rad): 2.919830565 Mean Anom(rad): -2.280181549 Af0(s): 0.0005441528564 Af1(s/s): 0 week: 355 ******** Week 355 almanac for PRN-21 ******** ID: 21 Health: 0 Eccentricity: 0.0006322860718 Time of Applicability(s): 589824 Orbital Inclination(rad): 0.962083988 Rate of Right Ascen(r/s): -8.366062766e-09 SQRT(A) (m 1/2): 5153.693848 Right Ascen at Week(rad): -1.529309562 Argument of Perigee(rad): -0.4417733593 Mean Anom(rad): -1.409546709 Af0(s): 0.0003090064697 Af1(s/s): 7.275958e-12 week: 355 ******** Week 355 almanac for PRN-22 ******** ID: 22 Health: 0 Eccentricity: 0.01217603683 Time of Applicability(s): 589824 Orbital Inclination(rad): 0.9573142665 Rate of Right Ascen(r/s): -8.034620388e-09 SQRT(A) (m 1/2): 5153.560547 Right Ascen at Week(rad): 1.681502852 Argument of Perigee(rad): -0.9962130386 Mean Anom(rad): 2.805868451 Af0(s): -4.14520874e-05 Af1(s/s): 3.637979e-12 week: 355 ******** Week 355 almanac for PRN-23 ******** ID: 23 Health: 0 Eccentricity: 0.006000518799 Time of Applicability(s): 589824 Orbital Inclination(rad): 0.9872029234 Rate of Right Ascen(r/s): -8.114623721e-09 SQRT(A) (m 1/2): 5153.651367 Right Ascen at Week(rad): -1.570940887 Argument of Perigee(rad): -2.741506422 Mean Anom(rad): -0.9416668389 Af0(s): 0.0004793368652 Af1(s/s): 3.637979e-12 week: 355 ******** Week 355 almanac for PRN-24 ******** ID: 24 Health: 0 Eccentricity: 0.01784801483 Time of Applicability(s): 589824 Orbital Inclination(rad): 0.9351913873 Rate of Right Ascen(r/s): -7.863184676e-09 SQRT(A) (m 1/2): 5153.600098 Right Ascen at Week(rad): 0.4353333365 Argument of Perigee(rad): 1.131132566 Mean Anom(rad): 0.3898048915 Af0(s): -0.0001107901245 Af1(s/s): 1.455192e-11 week: 355 ******** Week 355 almanac for PRN-25 ******** ID: 25 Health: 0 Eccentricity: 0.01294660568 Time of Applicability(s): 589824 Orbital Inclination(rad): 0.9470737463 Rate of Right Ascen(r/s): -8.148910863e-09 SQRT(A) (m 1/2): 5153.666992 Right Ascen at Week(rad): 1.5675883 Argument of Perigee(rad): 1.153091037 Mean Anom(rad): -1.369203688 Af0(s): 0.0003527195801 Af1(s/s): -3.637979e-12 week: 355 ******** Week 355 almanac for PRN-26 ******** ID: 26 Health: 0 Eccentricity: 0.01098251343 Time of Applicability(s): 589824 Orbital Inclination(rad): 0.9278690259 Rate of Right Ascen(r/s): -8.354633718e-09 SQRT(A) (m 1/2): 5153.627441 Right Ascen at Week(rad): 1.493583464 Argument of Perigee(rad): 0.704848443 Mean Anom(rad): -2.195198039 Af0(s): -0.0002532345703 Af1(s/s): -7.275958e-12 week: 355 ******** Week 355 almanac for PRN-27 ******** ID: 27 Health: 0 Eccentricity: 0.01425218582 Time of Applicability(s): 589824 Orbital Inclination(rad): 0.953131772 Rate of Right Ascen(r/s): -7.737465153e-09 SQRT(A) (m 1/2): 5153.61377 Right Ascen at Week(rad): 2.623328108 Argument of Perigee(rad): 0.8717156672 Mean Anom(rad): 2.345028939 Af0(s): -2.411757812e-05 Af1(s/s): -7.275958e-12 week: 355 ******** Week 355 almanac for PRN-28 ******** ID: 28 Health: 0 Eccentricity: 0.0004053115845 Time of Applicability(s): 589824 Orbital Inclination(rad): 0.9621019644 Rate of Right Ascen(r/s): -7.646032773e-09 SQRT(A) (m 1/2): 5153.727051 Right Ascen at Week(rad): 0.5171904612 Argument of Perigee(rad): 0.2519919227 Mean Anom(rad): -0.4844840134 Af0(s): -0.000476322168 Af1(s/s): 7.275958e-12 week: 355 ******** Week 355 almanac for PRN-29 ******** ID: 29 Health: 0 Eccentricity: 0.00329875946 Time of Applicability(s): 589824 Orbital Inclination(rad): 0.9624435148 Rate of Right Ascen(r/s): -7.657461821e-09 SQRT(A) (m 1/2): 5153.728516 Right Ascen at Week(rad): 2.712395991 Argument of Perigee(rad): 2.74350217 Mean Anom(rad): 2.221370837 Af0(s): -0.0003029770752 Af1(s/s): 7.275958e-12 week: 355 ******** Week 355 almanac for PRN-30 ******** ID: 30 Health: 0 Eccentricity: 0.007932662964 Time of Applicability(s): 589824 Orbital Inclination(rad): 0.9363898098 Rate of Right Ascen(r/s): -7.886042771e-09 SQRT(A) (m 1/2): 5153.720703 Right Ascen at Week(rad): 0.5346964178 Argument of Perigee(rad): -2.338861931 Mean Anom(rad): -0.7186273056 Af0(s): 8.365784912e-05 Af1(s/s): 1.091394e-11 week: 355 ******** Week 355 almanac for PRN-31 ******** ID: 31 Health: 0 Eccentricity: 0.01084709167 Time of Applicability(s): 589824 Orbital Inclination(rad): 0.9548814689 Rate of Right Ascen(r/s): -7.726036106e-09 SQRT(A) (m 1/2): 5153.716797 Right Ascen at Week(rad): 0.5673489365 Argument of Perigee(rad): 0.9338531243 Mean Anom(rad): -1.670468003 Af0(s): -0.0001341540283 Af1(s/s): 3.637979e-12 week: 355 ******** Week 355 almanac for PRN-32 ******** ID: 32 Health: 0 Eccentricity: 0.009239673614 Time of Applicability(s): 589824 Orbital Inclination(rad): 0.9677705027 Rate of Right Ascen(r/s): -7.771752296e-09 SQRT(A) (m 1/2): 5153.679199 Right Ascen at Week(rad): -0.5123072641 Argument of Perigee(rad): -2.0165477 Mean Anom(rad): 2.944694461 Af0(s): -8.893356934e-05 Af1(s/s): 1.818989e-11 week: 355